[[{"header":{"parameterUnit":"m.s-1","parameterCategory":1,"la1":30.2991,"la2":30.254,"lo1":-89.0895,"lo2":-89.0444,"dy":0.0017,"dx":0.0017,"nx":28,"ny":28,"refTime":"2025-04-01T21:00:00:Z","depth":0,"parameterNumber":2,"parameterNumberName":"U-component_of_WINDS"},"data":[0,0,0,0,0,0,0,0,0,0,0,0,0,0,0,0,0,0,0,0,0,0,0,0,0,0,0,0,0,0,0,0,0,0,0,0,0,0,0,0,0,0,0,0,0,0,0,0,0,0,0,0,0,0,0,0,0,0,-4.0095,-4.0096,0,-4.0199,-4.02,-4.0201,-4.0226,-4.0225,-4.0225,-4.0224,-4.0329,-4.0332,-4.0335,0,0,0,0,0,0,0,0,0,0,0,0,0,-3.9917,-3.992,-4.0095,-4.0096,-4.0098,-4.0199,-4.02,-4.0201,-4.0226,-4.0225,-4.0224,-4.0224,-4.0328,-4.0332,-4.0336,0,0,0,0,0,0,0,0,0,0,0,0,0,-4.0005,-3.9921,-4.0095,-4.0122,-4.0126,-4.0198,-4.02,-4.0202,-4.0226,-4.0225,-4.0224,-4.0223,-4.0326,-4.0331,-4.0336,-4.0389,0,0,-4.0352,-4.0354,0,0,0,0,0,0,0,0,-4.0,-4.0011,-4.0117,-4.012,-4.0124,-4.0198,-4.0176,-4.0265,-4.0227,-4.0188,-4.0224,-4.0223,-4.0286,-4.0295,-4.0316,-4.0394,-4.0398,-4.0353,-4.0356,-4.0358,-4.0359,0,0,0,0,0,0,0,-3.9994,-4.0007,-4.0136,-4.0118,-4.0123,-4.0129,-4.014,-4.0193,-4.0242,-4.0191,-4.0193,-4.0205,-4.0288,-4.0311,-4.0319,-4.04,-4.0352,-4.0357,-4.036,-4.0362,-4.0525,-4.0526,0,0,0,0,0,0,-3.9983,-4.0002,-4.0133,-4.0139,-4.0058,-4.0133,-4.0145,-4.0176,-4.0241,-4.025,-4.0206,-4.0206,-4.0303,-4.0313,-4.0323,-4.0388,-4.0358,-4.0363,-4.0366,-4.0524,-4.0525,-4.0527,0,0,0,0,0,0,-3.9979,-3.9994,-4.0129,-4.0071,-4.0089,-4.0137,-4.0171,-4.0178,-4.0201,-4.0252,-4.0261,-4.0221,-4.0302,-4.0315,-4.0372,-4.0392,-4.0365,-4.037,-4.0522,-4.0524,-4.0526,-4.0518,0,0,0,0,0,0,-3.9974,-3.9993,-4.0013,-4.0071,-4.0092,-4.0177,-4.0172,-4.0181,-4.021,-4.0211,-4.0268,-4.0277,-4.0303,-4.0364,-4.0377,-4.0398,-4.0374,-4.0521,-4.0523,-4.0526,-4.0517,-4.052,-4.0522,0,0,0,0,0,-3.9967,-4.0007,-4.0014,-4.003,-4.0118,-4.0178,-4.0189,-4.0218,-4.0212,-4.0233,-4.0266,-4.0275,-4.0388,-4.037,-4.0385,-4.0407,-4.052,-4.0523,-4.0525,-4.0516,-4.0519,-4.0522,0,0,0,0,0,0,-3.995,-4.0015,-4.0024,-4.0084,-4.0125,-4.0182,-4.0209,-4.0221,-4.0265,-4.0264,-4.0298,-4.0311,-4.0365,-4.0392,-4.0371,-4.0462,-4.0454,-4.0459,-4.0441,-4.0445,-4.0447,-4.0439,-4.0378,0,0,0,0,0,-3.9953,-3.9996,-4.0051,-4.0098,-4.0118,-4.016,-4.0187,-4.0206,-4.025,-4.0267,-4.0304,-4.0346,-4.0391,-4.042,-4.0464,-4.0522,-4.0534,-4.0545,-4.0547,-4.0549,-4.0553,-4.0585,-4.059,-4.0536,-4.0536,-4.0536,0,0,-3.9959,-4.0,-4.0025,-4.0095,-4.013,-4.0173,-4.0174,-4.022,-4.0252,-4.0274,-4.033,-4.0359,-4.0408,-4.0465,-4.0492,-4.0489,-4.0571,-4.0552,-4.0553,-4.0557,-4.0588,-4.0593,-4.0597,-4.0538,-4.0537,-4.0537,0,0,-3.9993,-4.0029,-4.0072,-4.0106,-4.0159,-4.0186,-4.0196,-4.0252,-4.0272,-4.0328,-4.0345,-4.0384,-4.0461,-4.0495,-4.0522,-4.057,-4.058,-4.0583,-4.0595,-4.0626,-4.063,-4.0634,-4.0649,-4.0655,-4.0588,-4.0588,-4.0588,0,-3.9994,-4.0061,-4.0092,-4.0137,-4.0167,-4.019,-4.0233,-4.0265,-4.0329,-4.0348,-4.0345,-4.0442,-4.0476,-4.0541,-4.0553,-4.0575,-4.0587,-4.0576,-4.0627,-4.0631,-4.0635,-4.065,-4.0656,-4.0588,-4.0588,-4.0588,-4.0588,0,-4.0059,-4.0105,-4.0133,-4.0194,-4.0228,-4.0271,-4.0309,-4.0339,-4.0356,-4.0384,-4.0441,-4.0484,-4.0536,-4.0554,-4.057,-4.0621,-4.0618,-4.062,-4.0613,-4.064,-4.0655,-4.0661,-4.0588,-4.0588,-4.0588,-4.0588,0,0,-4.0083,-4.0162,-4.0171,-4.0199,-4.0259,-4.0294,-4.0339,-4.0391,-4.0416,-4.0459,-4.0497,-4.0562,-4.0565,-4.0596,-4.0616,-4.0643,-4.0677,-4.0643,-4.0644,-4.0646,-4.0734,-4.073,-4.0737,-4.0685,-4.0686,-4.0687,-4.0729,0,-4.0123,-4.0204,-4.0234,-4.03,-4.0342,-4.0365,-4.0404,-4.0444,-4.0471,-4.0511,-4.0541,-4.0586,-4.0587,-4.0606,-4.0634,-4.0667,-4.0694,-4.0664,-4.0719,-4.072,-4.0704,-4.0745,-4.0741,-4.0779,-4.0736,-4.0737,-4.0737,0,-4.018,-4.0224,-4.0294,-4.0348,-4.0367,-4.0401,-4.0451,-4.0489,-4.0535,-4.0554,-4.0589,-4.0608,-4.0655,-4.0646,-4.0711,-4.069,-4.0714,-4.0734,-4.0736,-4.0741,-4.0729,-4.0749,-4.0792,-4.0797,-4.0747,-4.0746,-4.0746,0,-4.0188,-4.0266,-4.0317,-4.0341,-4.0405,-4.0429,-4.0457,-4.0502,-4.0531,-4.0575,-4.0595,-4.0643,-4.067,-4.0707,-4.0738,-4.0729,-4.08,-4.0794,-4.0816,-4.0815,-4.0828,-4.0826,-4.0874,-4.0847,-4.0847,-4.0846,-4.0846,0,-4.0229,-4.027,-4.0322,-4.0353,-4.0401,-4.0435,-4.0481,-4.0511,-4.0551,-4.0588,-4.0611,-4.0646,-4.0686,-4.0726,-4.0751,-4.0801,-4.0813,-4.0828,-4.0834,-4.0825,-4.0823,-4.084,-4.0838,-4.0848,-4.0848,-4.0847,-4.0847,0,-4.0245,-4.0282,-4.0339,-4.0396,-4.0411,-4.0443,-4.0492,-4.0523,-4.0552,-4.0599,-4.0612,-4.0658,-4.0706,-4.0741,-4.0803,-4.082,-4.0873,-4.088,-4.0857,-4.0859,-4.0878,-4.0876,-4.0938,-4.0947,-4.0914,-4.0915,-4.0915,0,-4.0268,-4.03,-4.036,-4.0387,-4.0415,-4.0458,-4.0488,-4.0524,-4.0554,-4.061,-4.0634,-4.0684,-4.0725,-4.0801,-4.0839,-4.0886,-4.0894,-4.0912,-4.0901,-4.0891,-4.0892,-4.0889,-4.0892,-4.0913,-4.0913,-4.0913,-4.0913,0,-4.0303,-4.032,-4.0362,-4.0411,-4.0447,-4.0487,-4.0528,-4.0548,-4.0591,-4.0624,-4.0673,-4.0706,-4.0769,-4.0818,-4.0869,-4.0898,-4.0912,-4.0917,-4.0924,-4.0915,-4.0899,-4.0907,-4.0859,-4.0915,-4.0915,-4.0915,-4.0915,-4.0915,-4.0322,-4.0352,-4.0399,-4.0446,-4.048,-4.0518,-4.055,-4.0583,-4.0625,-4.0679,-4.0698,-4.0749,-4.0794,-4.0865,-4.0894,-4.0934,-4.0934,-4.0945,-4.0947,-4.0949,-4.0947,-4.0895,-4.0944,-4.0944,-4.0944,-4.0944,-4.0944,0,-4.0358,-4.0389,-4.0432,-4.0488,-4.0525,-4.0536,-4.0582,-4.0612,-4.0656,-4.0698,-4.0738,-4.0795,-4.0842,-4.0884,-4.0934,-4.0957,-4.0965,-4.0969,-4.0967,-4.0973,-4.0945,-4.0934,-4.0962,-4.0962,-4.0962,-4.0962,-4.0962,-4.0962,-4.038,-4.0431,-4.0453,-4.0521,-4.0552,-4.0602,-4.0627,-4.0661,-4.0695,-4.0757,-4.0796,-4.0824,-4.0866,-4.0918,-4.0962,-4.0973,-4.099,-4.0991,-4.1004,-4.0977,-4.0975,-4.0973,-4.0962,-4.0995,-4.0995,-4.1028,-4.1028,-4.1029]},{"header":{"parameterUnit":"m.s-1","parameterCategory":1,"la1":30.2991,"la2":30.254,"lo1":-89.0895,"lo2":-89.0444,"dy":0.0017,"dx":0.0017,"nx":28,"ny":28,"refTime":"2025-04-01T21:00:00:Z","depth":0,"parameterNumber":3,"parameterNumberName":"V-component_of_WINDS"},"data":[0,0,0,0,0,0,0,0,0,0,0,0,0,0,0,0,0,0,0,0,0,0,0,0,0,0,0,0,0,0,0,0,0,0,0,0,0,0,0,0,0,0,0,0,0,0,0,0,0,0,0,0,0,0,0,0,0,0,5.6994,5.6995,0,5.7119,5.712,5.7121,5.7114,5.7112,5.711,5.7109,5.7236,5.7241,5.7246,0,0,0,0,0,0,0,0,0,0,0,0,0,5.675,5.6754,5.6994,5.6995,5.6997,5.7118,5.712,5.7122,5.7114,5.7112,5.711,5.7108,5.7234,5.724,5.7246,0,0,0,0,0,0,0,0,0,0,0,0,0,5.6863,5.6756,5.6993,5.7008,5.701,5.7118,5.712,5.7122,5.7115,5.7112,5.7109,5.7107,5.7232,5.724,5.7247,5.7348,0,0,5.727,5.7274,0,0,0,0,0,0,0,0,5.6857,5.6872,5.7004,5.7007,5.701,5.7098,5.7081,5.7198,5.7116,5.7075,5.7109,5.7106,5.7192,5.7203,5.7232,5.7354,5.736,5.7271,5.7276,5.7279,5.7281,0,0,0,0,0,0,0,5.6849,5.6867,5.7043,5.7006,5.701,5.7008,5.7021,5.7103,5.7147,5.7078,5.7078,5.7093,5.7193,5.7225,5.7235,5.7362,5.7271,5.7277,5.7282,5.7285,5.7577,5.758,0,0,0,0,0,0,5.6838,5.686,5.7039,5.7047,5.6925,5.7015,5.703,5.7072,5.7146,5.7155,5.7095,5.7092,5.7213,5.7226,5.724,5.7366,5.7279,5.7286,5.729,5.7574,5.7578,5.7581,0,0,0,0,0,0,5.6833,5.6854,5.7034,5.6954,5.6976,5.7022,5.707,5.7076,5.7108,5.7159,5.7167,5.712,5.7212,5.7229,5.7322,5.737,5.7289,5.7296,5.757,5.7575,5.7579,5.7617,0,0,0,0,0,0,5.6826,5.6852,5.6891,5.6955,5.6981,5.7114,5.7073,5.7081,5.7121,5.7119,5.7184,5.7192,5.7211,5.7311,5.733,5.7379,5.7302,5.7566,5.7572,5.7578,5.7612,5.7622,5.7632,0,0,0,0,0,5.6817,5.6895,5.6892,5.6914,5.703,5.7117,5.7132,5.7152,5.7125,5.7165,5.7198,5.719,5.7361,5.7321,5.7342,5.7394,5.7563,5.7571,5.7578,5.7607,5.762,5.7631,0,0,0,0,0,0,5.6834,5.6904,5.6901,5.7002,5.7054,5.7116,5.7166,5.7165,5.7225,5.722,5.7242,5.7257,5.7351,5.7382,5.7335,5.7498,5.7459,5.7471,5.7474,5.7487,5.7497,5.7488,5.7308,0,0,0,0,0,5.685,5.6915,5.6972,5.7056,5.7082,5.712,5.7158,5.717,5.7224,5.7245,5.7285,5.7338,5.7404,5.7447,5.751,5.7616,5.7632,5.7663,5.7672,5.768,5.7691,5.7752,5.7767,5.7605,5.7605,5.7605,0,0,5.6883,5.6929,5.6968,5.7061,5.7102,5.717,5.7138,5.721,5.7261,5.7256,5.7348,5.7379,5.744,5.7541,5.7587,5.7569,5.7739,5.769,5.7695,5.7702,5.7761,5.7776,5.779,5.761,5.7609,5.7608,0,0,5.6978,5.7018,5.7094,5.7137,5.72,5.7225,5.7243,5.7306,5.7327,5.742,5.7419,5.7479,5.7592,5.7636,5.7673,5.7789,5.7785,5.7809,5.7861,5.792,5.7933,5.7945,5.7988,5.8003,5.7818,5.7818,5.7819,0,5.7011,5.7112,5.7133,5.7207,5.7248,5.7249,5.7326,5.7366,5.7447,5.7476,5.7455,5.7599,5.7639,5.7752,5.7781,5.781,5.7833,5.7801,5.793,5.7941,5.7952,5.7994,5.801,5.7821,5.7821,5.7821,5.782,0,5.7151,5.7222,5.7275,5.7355,5.7402,5.7478,5.7511,5.7556,5.7564,5.7592,5.7688,5.7737,5.7812,5.7839,5.7846,5.7954,5.7941,5.7925,5.7886,5.797,5.801,5.8026,5.7825,5.7824,5.7823,5.7823,0,0,5.7259,5.7351,5.737,5.7408,5.7479,5.7535,5.7611,5.7685,5.7725,5.7781,5.7847,5.7944,5.793,5.7973,5.7986,5.8038,5.8129,5.8015,5.8017,5.8036,5.8254,5.8267,5.8285,5.8127,5.813,5.8132,5.8249,0,5.7363,5.7498,5.752,5.764,5.7707,5.7709,5.7776,5.7828,5.7857,5.7918,5.7949,5.8019,5.7994,5.802,5.8072,5.8107,5.8173,5.8099,5.819,5.8192,5.8176,5.8305,5.8319,5.8427,5.8265,5.8267,5.8269,0,5.7501,5.7563,5.769,5.7755,5.7784,5.7844,5.7915,5.7974,5.8033,5.805,5.81,5.8107,5.8188,5.8146,5.8259,5.8208,5.8246,5.827,5.8274,5.8284,5.8237,5.8321,5.8461,5.8478,5.8293,5.8291,5.829,0,5.7571,5.7685,5.7777,5.7808,5.7886,5.7929,5.7963,5.802,5.8064,5.8126,5.8156,5.8226,5.8265,5.8321,5.8348,5.8314,5.846,5.8419,5.8478,5.8478,5.8509,5.8507,5.866,5.8531,5.8531,5.8531,5.853,0,5.7685,5.7763,5.7809,5.7866,5.7954,5.7979,5.8065,5.8099,5.815,5.8214,5.822,5.8279,5.8311,5.8376,5.8398,5.8489,5.8506,5.8524,5.8529,5.8524,5.8522,5.8551,5.8545,5.8535,5.8534,5.8533,5.8532,0,5.7777,5.7811,5.7911,5.7978,5.7996,5.8059,5.8116,5.8171,5.82,5.8281,5.8302,5.8347,5.8425,5.8457,5.8551,5.8566,5.8672,5.867,5.8652,5.8654,5.8712,5.8707,5.889,5.8916,5.8768,5.8769,5.8771,0,5.7849,5.7909,5.7983,5.8026,5.8063,5.8132,5.8178,5.8206,5.8253,5.8327,5.8375,5.8452,5.8515,5.8639,5.8681,5.8754,5.8755,5.8814,5.8766,5.8761,5.8759,5.8756,5.8763,5.8824,5.8825,5.8826,5.8827,0,5.7973,5.7988,5.8054,5.8127,5.8182,5.824,5.8297,5.8332,5.8369,5.8423,5.8502,5.8552,5.8649,5.8727,5.8803,5.8839,5.8841,5.8842,5.886,5.8857,5.8845,5.8854,5.8678,5.8838,5.8837,5.8836,5.8835,5.8835,5.8059,5.8114,5.8175,5.8249,5.8296,5.835,5.8406,5.8443,5.851,5.8592,5.8604,5.869,5.8751,5.8853,5.8893,5.8961,5.8946,5.8971,5.8978,5.8984,5.8989,5.8833,5.8974,5.8974,5.8974,5.8974,5.8974,0,5.8186,5.8226,5.8294,5.8375,5.8434,5.843,5.8494,5.8543,5.8619,5.8675,5.8739,5.8832,5.8908,5.8957,5.9034,5.9079,5.9082,5.9099,5.9096,5.9105,5.8997,5.8975,5.9095,5.9095,5.9095,5.9095,5.9095,5.9095,5.8259,5.8353,5.8375,5.8492,5.8532,5.8617,5.8654,5.8704,5.875,5.8854,5.8917,5.8949,5.9004,5.9085,5.9155,5.9168,5.9197,5.9215,5.9227,5.9125,5.9113,5.91,5.908,5.9221,5.9221,5.933,5.9331,5.9332]}]]